{"data":{"norad_id":58123,"epoch":"2026-05-25T03:49:21.868032Z","epoch_age_seconds":71673,"freshness":"FRESH","line1":"1 58123U 23162F   26145.15928088  .00002754  00000+0  10956-3 0  9993","line2":"2 58123  43.0063  60.5051 0001545 252.3681 107.7002 15.27578775144006","mean_motion":15.27578775,"eccentricity":0.0001545,"inclination_deg":43.0063,"raan_deg":60.5051,"arg_perigee_deg":252.3681,"mean_anomaly_deg":107.7002,"bstar":0.00010956,"rev_number":14400,"period_min":94.266824308291,"perigee_km":481.99271031424,"apogee_km":484.11281795136,"semimajor_km":6861.1897641328,"source":"CELESTRAK","updated_at":"2026-05-25T13:38:18.531625Z"}}